Back to catalog

STARLINK-31419

AliveCommunicationsVLEO
NORAD 59368·PAYLOAD·🇺🇸 United States

Launched Mar 31, 2024 from Cape Canaveral Space Force Station

Loading…

Next Passes (next 24 hours)

TLE

FreshSource: CelesTrak SupGP

Epoch: Sep 15, 2026, 03:09 UTC

1 59368C 24060W   26258.13173611 -.00018007  00000+0 -65230-3 0  2583
2 59368  42.9999 269.8914 0001323 265.1053 203.7393 15.27582660    15

Track STARLINK-31419 in real time with AllMySat

Download on the App Store